Meridian, MS

11:05 PM CDT on July 24, 2017 (GMT -0500)
Key

Weather History for KMEI - March, 2014

Change the Weather History Date:

Sunday, March 9, 2014

  Actual Average Record
Temperature  
Mean Temperature 60 °F 54 °F  
Max Temperature 73 °F 67 °F 88 °F (1974)
Min Temperature 46 °F 41 °F 18 °F (1996)
Degree Days  
Heating Degree Days 5 11  
Month to date heating degree days 124 110  
Since 1 July heating degree days 2500 2207  
Cooling Degree Days 0 1  
Month to date cooling degree days 2 1  
Year to date cooling degree days 9 8  
Growing Degree Days 10 (Base 50)    
Moisture  
Dew Point 47 °F    
Average Humidity 68    
Maximum Humidity 100    
Minimum Humidity 35    
Precipitation  
Precipitation 0.00 in 0.17 in 2.30 in (2011)
Month to date precipitation 0.71 1.65  
Year to date precipitation 10.06 12.38  
Sea Level Pressure  
Sea Level Pressure 30.18 in    
Wind  
Wind Speed 1 mph (NE)    
Max Wind Speed 12 mph    
Max Gust Speed 13 mph    
Visibility 10 miles    
Events      
T = Trace of Precipitation, MM = Missing Value Source: NWS Daily Summary

Daily Weather History Graph

Daily Weather History Graph

Search for Another Location

Airport or City:

Trip Planner

Search our weather history database for the weather conditions in past years. The results will help you decide how hot, cold, wet, or windy it might be!

Date:

Astronomy

Mar. 09, 2014 Rise Set
Actual Time 7:12 AM CDT 6:58 PM CDT
Civil Twilight 6:48 AM CDT 7:23 PM CDT
Nautical Twilight 6:19 AM CDT 7:51 PM CDT
Astronomical Twilight 5:51 AM CDT 8:20 PM CDT
Moon 1:05 PM CDT (3/9) 3:24 AM CDT (3/9)
Length of Visible Light 12h 34m
Length of Day
11h 45m
First Quarter, 61% of the Moon is Illuminated
Mar 9
First Quarter
Mar 16
Full
Mar 23
Last Quarter
Mar 30
New
Apr 7
First Quarter

Hourly Weather History & Observations

Time (CDT) Temp. Dew Point Humidity Pressure Visibility Wind Dir Wind Speed Gust Speed Precip Events Conditions
12:58 AM 48.0 °F 46.9 °F 96% 30.18 in 10.0 mi South 3.5 mph - N/A   Scattered Clouds
1:58 AM 48.9 °F 46.9 °F 93% 30.17 in 10.0 mi Calm Calm - N/A   Overcast
3:58 AM 46.9 °F 46.0 °F 97% 30.16 in 10.0 mi South 4.6 mph - N/A   Clear
4:58 AM 46.9 °F 46.0 °F 97% 30.19 in 10.0 mi Calm Calm - N/A   Mostly Cloudy
5:58 AM 48.0 °F 46.9 °F 96% 30.19 in 10.0 mi Calm Calm - N/A   Overcast
6:58 AM 48.0 °F 46.9 °F 96% 30.20 in 10.0 mi Calm Calm - N/A   Clear
7:58 AM 48.0 °F 46.9 °F 96% 30.21 in 8.0 mi Calm Calm - N/A   Clear
8:58 AM 54.0 °F 48.9 °F 83% 30.22 in 10.0 mi Calm Calm - N/A   Clear
9:58 AM 60.1 °F 48.0 °F 64% 30.23 in 10.0 mi Calm Calm - N/A   Clear
10:58 AM 64.9 °F 46.0 °F 50% 30.23 in 10.0 mi North 4.6 mph - N/A   Clear
11:58 AM 66.0 °F 46.0 °F 48% 30.24 in 10.0 mi ENE 5.8 mph - N/A   Overcast
12:58 PM 66.0 °F 46.0 °F 48% 30.22 in 10.0 mi Calm Calm - N/A   Partly Cloudy
1:58 PM 69.1 °F 45.0 °F 42% 30.19 in 10.0 mi Calm Calm - N/A   Overcast
2:58 PM 70.0 °F 45.0 °F 41% 30.17 in 10.0 mi Calm Calm - N/A   Scattered Clouds
3:58 PM 73.0 °F 45.0 °F 37% 30.15 in 10.0 mi NNE 4.6 mph - N/A   Overcast
4:58 PM 71.1 °F 45.0 °F 39% 30.14 in 10.0 mi Calm Calm - N/A   Overcast
5:58 PM 70.0 °F 46.0 °F 42% 30.12 in 10.0 mi Calm Calm - N/A   Clear
6:58 PM 64.0 °F 48.0 °F 56% 30.13 in 10.0 mi NNW 5.8 mph - N/A   Partly Cloudy
7:58 PM 60.1 °F 48.9 °F 67% 30.15 in 10.0 mi Calm Calm - N/A   Clear
8:58 PM 54.0 °F 48.9 °F 83% 30.17 in 10.0 mi Calm Calm - N/A   Clear
9:58 PM 52.0 °F 48.0 °F 86% 30.18 in 10.0 mi Calm Calm - N/A   Clear
10:58 PM 50.0 °F 48.0 °F 93% 30.17 in 10.0 mi Calm Calm - N/A   Clear
11:58 PM 48.0 °F 46.0 °F 93% 30.17 in 10.0 mi Calm Calm - N/A   Clear
12:58 AM 46.9 °F 45.0 °F 93% 30.17 in 10.0 mi Calm Calm - N/A   Clear